• In Italy
  • List of Countries
  • For 7 days
  • Water Temperature
  • Satellite Maps
  • Weather Map
  • Weather Widgets
  • user-avatar
    Login

    Hourly Weather Hobro

    Today, 19 April, Thursday

    Time Temperature Precipitation Wind Pressure Humidity
    00:00 +9°C° 0 mm 2 mps 770 mmHg 92%
    01:00 +9°C° 0 mm 2 mps 770 mmHg 92%
    02:00 +9°C° 0 mm 2 mps 770 mmHg 92%
    03:00 +9°C° 0 mm 2 mps 770 mmHg 92%
    04:00 +8°C° 0 mm 2 mps 769 mmHg 91%
    05:00 +9°C° 0 mm 2 mps 770 mmHg 88%
    06:00 +10°C° 0 mm 2 mps 770 mmHg 85%
    07:00 +12°C° 0 mm 2 mps 770 mmHg 83%
    08:00 +14°C° 0 mm 2 mps 770 mmHg 75%
    09:00 +16°C° 0 mm 2 mps 770 mmHg 68%
    10:00 +18°C° 0 mm 2 mps 770 mmHg 60%
    11:00 +19°C° 0 mm 2 mps 770 mmHg 56%
    12:00 +21°C° 0 mm 2 mps 770 mmHg 51%
    13:00 +22°C° 0 mm 3 mps 769 mmHg 47%
    14:00 +22°C° 0 mm 3 mps 769 mmHg 47%
    15:00 +24°C° 0 mm 3 mps 769 mmHg 47%
    16:00 +24°C° 0 mm 3 mps 768 mmHg 47%
    17:00 +21°C° 0 mm 3 mps 768 mmHg 54%
    18:00 +20°C° 0 mm 3 mps 768 mmHg 62%
    19:00 +18°C° 0 mm 3 mps 767 mmHg 69%
    20:00 +17°C° 0 mm 3 mps 767 mmHg 74%
    21:00 +16°C° 0 mm 3 mps 767 mmHg 79%
    22:00 +14°C° 0 mm 3 mps 767 mmHg 83%
    23:00 +13°C° 0 mm 3 mps 767 mmHg 86%

    Tomorrow, 20 April, Friday

    Time Temperature Precipitation Wind Pressure Humidity
    00:00 +13°C° 0 mm 3 mps 766 mmHg 88%
    01:00 +13°C° 0 mm 3 mps 766 mmHg 91%
    02:00 +13°C° 0 mm 3 mps 765 mmHg 91%
    03:00 +12°C° 0 mm 3 mps 765 mmHg 92%
    04:00 +12°C° 0 mm 3 mps 764 mmHg 92%
    05:00 +13°C° 0 mm 4 mps 764 mmHg 89%
    06:00 +13°C° 0 mm 4 mps 764 mmHg 85%
    07:00 +14°C° 0 mm 4 mps 763 mmHg 82%
    08:00 +17°C° 0 mm 4 mps 763 mmHg 76%
    09:00 +18°C° 0 mm 4 mps 763 mmHg 70%
    10:00 +20°C° 0 mm 4 mps 762 mmHg 64%
    11:00 +21°C° 0 mm 5 mps 762 mmHg 61%
    12:00 +22°C° 0 mm 5 mps 762 mmHg 58%
    13:00 +22°C° 0 mm 5 mps 761 mmHg 55%
    14:00 +21°C° 0 mm 6 mps 761 mmHg 56%
    15:00 +20°C° 0 mm 6 mps 760 mmHg 58%
    16:00 +20°C° 0 mm 6 mps 760 mmHg 59%
    17:00 +17°C° 0 mm 6 mps 760 mmHg 65%
    18:00 +15°C° 0 mm 6 mps 760 mmHg 70%
    19:00 +13°C° 0 mm 6 mps 760 mmHg 75%
    20:00 +11°C° 0 mm 6 mps 761 mmHg 78%
    21:00 +10°C° 0 mm 6 mps 761 mmHg 81%
    22:00 +9°C° 0 mm 6 mps 761 mmHg 83%
    23:00 +8°C° 0 mm 6 mps 761 mmHg 81%

    Day after tomorrow, 21 April, Saturday

    Time Temperature Precipitation Wind Pressure Humidity
    00:00 +8°C° 0 mm 5 mps 762 mmHg 79%
    01:00 +7°C° 0 mm 5 mps 762 mmHg 77%
    02:00 +7°C° 0 mm 5 mps 762 mmHg 79%
    03:00 +7°C° 0 mm 5 mps 762 mmHg 81%
    04:00 +6°C° 0 mm 5 mps 762 mmHg 83%
    05:00 +7°C° 0 mm 5 mps 762 mmHg 82%
    06:00 +7°C° 0 mm 5 mps 762 mmHg 81%
    07:00 +8°C° 0 mm 5 mps 762 mmHg 79%
    08:00 +9°C° 0 mm 5 mps 762 mmHg 74%
    09:00 +10°C° 0 mm 6 mps 762 mmHg 69%
    10:00 +13°C° 0 mm 6 mps 763 mmHg 64%
    11:00 +13°C° 0 mm 6 mps 763 mmHg 61%
    12:00 +14°C° 0 mm 6 mps 763 mmHg 58%
    13:00 +14°C° 0 mm 7 mps 763 mmHg 55%
    14:00 +14°C° 0 mm 7 mps 762 mmHg 55%
    15:00 +14°C° 0 mm 6 mps 762 mmHg 55%
    16:00 +13°C° 0 mm 6 mps 762 mmHg 56%
    17:00 +11°C° 0 mm 6 mps 762 mmHg 60%
    18:00 +10°C° 0 mm 5 mps 761 mmHg 65%
    19:00 +10°C° 0 mm 4 mps 761 mmHg 70%
    20:00 +8°C° 0 mm 4 mps 761 mmHg 74%
    21:00 +7°C° 0 mm 4 mps 761 mmHg 79%
    22:00 +7°C° 0 mm 3 mps 761 mmHg 83%
    23:00 +7°C° 0 mm 3 mps 761 mmHg 85%

    22 April, Sunday

    Time Temperature Precipitation Wind Pressure Humidity
    00:00 +5°C° 0 mm 3 mps 761 mmHg 86%
    01:00 +5°C° 0 mm 3 mps 761 mmHg 88%
    02:00 +5°C° 0 mm 3 mps 760 mmHg 88%
    03:00 +5°C° 0 mm 3 mps 760 mmHg 88%
    04:00 +4°C° 0 mm 3 mps 760 mmHg 89%
    05:00 +5°C° 0 mm 3 mps 760 mmHg 84%
    06:00 +7°C° 0 mm 2 mps 759 mmHg 80%
    07:00 +8°C° 0 mm 2 mps 759 mmHg 75%
    08:00 +10°C° 0 mm 3 mps 759 mmHg 71%
    09:00 +11°C° 0 mm 3 mps 759 mmHg 67%
    10:00 +12°C° 0 mm 3 mps 758 mmHg 63%
    11:00 +14°C° 0 mm 4 mps 758 mmHg 60%
    12:00 +15°C° 0 mm 4 mps 757 mmHg 56%
    13:00 +16°C° 0 mm 5 mps 757 mmHg 53%
    14:00 +16°C° 0 mm 5 mps 756 mmHg 54%
    15:00 +16°C° 0 mm 5 mps 755 mmHg 55%
    16:00 +16°C° 0 mm 5 mps 755 mmHg 56%
    17:00 +15°C° 0 mm 5 mps 754 mmHg 61%
    18:00 +14°C° 0 mm 5 mps 753 mmHg 66%
    19:00 +13°C° 0 mm 5 mps 753 mmHg 70%
    20:00 +13°C° 0.5 mm 5 mps 752 mmHg 78%
    21:00 +12°C° 0.5 mm 5 mps 752 mmHg 85%
    22:00 +10°C° 0.5 mm 5 mps 751 mmHg 92%
    23:00 +10°C° 0.2 mm 5 mps 751 mmHg 93%

    23 April, Monday

    Time Temperature Precipitation Wind Pressure Humidity
    00:00 +11°C° 0.2 mm 4 mps 750 mmHg 94%
    01:00 +11°C° 0.2 mm 4 mps 750 mmHg 96%
    02:00 +11°C° 0.3 mm 4 mps 750 mmHg 95%
    03:00 +10°C° 0.3 mm 3 mps 749 mmHg 95%
    04:00 +10°C° 0.3 mm 3 mps 749 mmHg 94%
    05:00 +10°C° 0.1 mm 4 mps 749 mmHg 90%
    06:00 +8°C° 0.1 mm 4 mps 749 mmHg 87%
    07:00 +8°C° 0.1 mm 5 mps 749 mmHg 83%
    08:00 +9°C° 0 mm 5 mps 749 mmHg 76%
    09:00 +10°C° 0 mm 6 mps 749 mmHg 68%
    10:00 +11°C° 0 mm 6 mps 749 mmHg 61%
    11:00 +11°C° 0.1 mm 7 mps 749 mmHg 61%
    12:00 +11°C° 0.1 mm 8 mps 749 mmHg 60%
    13:00 +12°C° 0.1 mm 8 mps 749 mmHg 59%
    14:00 +11°C° 0.1 mm 8 mps 749 mmHg 65%
    15:00 +10°C° 0.1 mm 8 mps 749 mmHg 70%
    16:00 +9°C° 0.1 mm 8 mps 749 mmHg 76%
    17:00 +7°C° 0.1 mm 8 mps 748 mmHg 76%
    18:00 +7°C° 0.1 mm 8 mps 748 mmHg 77%
    19:00 +7°C° 0.1 mm 8 mps 748 mmHg 77%
    20:00 +6°C° 0 mm 8 mps 748 mmHg 79%
    21:00 +6°C° 0 mm 7 mps 748 mmHg 81%
    22:00 +6°C° 0 mm 7 mps 748 mmHg 83%
    23:00 +5°C° 0 mm 7 mps 748 mmHg 84%

    24 April, Tuesday

    Time Temperature Precipitation Wind Pressure Humidity
    00:00 +5°C° 0 mm 7 mps 748 mmHg 86%
    01:00 +5°C° 0 mm 7 mps 747 mmHg 87%
    02:00 +5°C° 0 mm 7 mps 747 mmHg 88%
    03:00 +5°C° 0 mm 6 mps 747 mmHg 89%
    04:00 +5°C° 0 mm 6 mps 747 mmHg 90%
    05:00 +5°C° 0 mm 6 mps 747 mmHg 88%
    06:00 +5°C° 0 mm 7 mps 747 mmHg 87%
    07:00 +6°C° 0 mm 7 mps 747 mmHg 85%
    08:00 +8°C° 0.2 mm 7 mps 747 mmHg 80%
    09:00 +8°C° 0.2 mm 7 mps 748 mmHg 76%
    10:00 +9°C° 0.2 mm 8 mps 748 mmHg 71%
    11:00 +10°C° 0.3 mm 8 mps 748 mmHg 69%
    12:00 +10°C° 0.3 mm 9 mps 748 mmHg 66%
    13:00 +10°C° 0.3 mm 9 mps 748 mmHg 64%
    14:00 +10°C° 0.1 mm 9 mps 748 mmHg 65%
    15:00 +10°C° 0.1 mm 9 mps 748 mmHg 66%
    16:00 +8°C° 0.1 mm 9 mps 749 mmHg 67%
    17:00 +7°C° 0 mm 9 mps 749 mmHg 70%
    18:00 +7°C° 0 mm 8 mps 749 mmHg 74%
    19:00 +6°C° 0 mm 7 mps 749 mmHg 78%
    20:00 +5°C° 0 mm 7 mps 749 mmHg 82%
    21:00 +5°C° 0 mm 6 mps 749 mmHg 85%
    22:00 +4°C° 0 mm 6 mps 749 mmHg 89%
    23:00 +5°C° 0 mm 5 mps 748 mmHg 90%
    Show more